Location: Newark
(46.7000°N, 60.6000°W)
Time: 21:04:56
(UTC+00:00)

Tiros 1 despin weight - All Passes

Search period start: 28 October 2020 00:00
Search period end: 07 November 2020 00:00
Orbit: 594 x 641 km, 48.2° (Epoch: 27 October)

Date Brightness Start Highest point End Pass type
(mag) Time Alt. Az. Time Alt. Az. Time Alt. Az.
28 Oct - 03:23:03 10° S 03:25:52 17° SE 03:28:41 10° E night (unlit)
28 Oct - 05:02:23 10° SW 05:06:47 58° SSE 05:11:09 10° ENE night (unlit)
28 Oct - 06:43:52 10° W 06:48:19 74° N 06:52:45 10° E visible
28 Oct - 08:25:34 10° WNW 08:30:02 89° NE 08:34:27 10° ESE visible
28 Oct - 10:07:19 10° W 10:11:18 33° SSW 10:15:16 10° SSE visible
29 Oct - 03:38:09 10° SSW 03:41:59 28° SE 03:45:48 10° E night (unlit)
29 Oct - 05:18:42 10° WSW 05:23:11 82° SSE 05:27:37 10° ENE night (unlit)
29 Oct - 07:00:24 10° W 07:04:51 72° N 07:09:16 10° E visible
29 Oct - 08:42:03 10° WNW 08:46:27 67° SSW 08:50:49 10° ESE visible
29 Oct - 10:24:13 10° W 10:27:27 20° SW 10:30:40 10° S daylight
30 Oct - 02:15:57 10° SSE 02:17:29 12° SE 02:19:00 10° ESE night (unlit)
30 Oct - 03:53:55 10° SW 03:58:13 45° SSE 04:02:29 10° ENE night (unlit)
30 Oct - 05:35:10 10° W 05:39:39 80° N 05:44:06 10° ENE night (unlit)
30 Oct - 07:16:55 10° WNW 07:21:22 80° N 07:25:48 10° E visible
30 Oct - 08:58:34 10° W 09:02:47 44° SSW 09:06:58 10° SE visible
30 Oct - 10:42:20 10° WSW 10:43:29 11° SW 10:44:37 10° SSW daylight
31 Oct - 02:30:08 10° S 02:33:31 21° SE 02:36:53 10° E night (unlit)
31 Oct - 04:10:05 10° WSW 04:14:34 69° SSE 04:19:00 10° ENE night (unlit)
31 Oct - 05:51:42 10° W 05:56:10 72° N 06:00:36 10° E night (unlit)
31 Oct - 07:33:23 10° WNW 07:37:50 82° SSW 07:42:15 10° ESE visible
31 Oct - 09:15:15 10° W 09:19:00 27° SW 09:22:44 10° SSE visible
01 Nov - 02:45:35 10° SSW 02:49:41 34° SSE 02:53:45 10° E night (unlit)
01 Nov - 04:26:28 10° WSW 04:31:00 89° N 04:35:27 10° ENE night (unlit)
01 Nov - 06:08:13 10° W 06:12:41 74° N 06:17:08 10° E night (unlit)
01 Nov - 07:49:52 10° WNW 07:54:13 57° SSW 07:58:33 10° SE visible
01 Nov - 09:32:25 10° W 09:35:06 16° SW 09:37:46 10° S visible
02 Nov - 01:22:28 10° S 01:25:05 15° SE 01:27:42 10° ESE night (unlit)
02 Nov - 03:01:32 10° SW 03:05:58 54° SSE 03:10:20 10° ENE night (unlit)
02 Nov - 04:42:58 10° W 04:47:29 75° N 04:51:56 10° E night (unlit)
02 Nov - 06:24:42 10° WNW 06:29:12 86° NNE 06:33:38 10° ESE visible
02 Nov - 08:06:26 10° W 08:10:30 36° SSW 08:14:33 10° SE visible
03 Nov - 01:37:24 10° SSW 01:41:11 26° SE 01:44:56 10° E night (unlit)
03 Nov - 03:17:49 10° WSW 03:22:20 79° SSE 03:26:49 10° ENE night (unlit)
03 Nov - 04:59:30 10° W 05:04:00 72° N 05:08:27 10° E night (unlit)
03 Nov - 06:41:11 10° WNW 06:45:37 72° SSW 06:50:01 10° ESE visible
03 Nov - 08:23:15 10° W 08:26:40 22° SW 08:30:05 10° SSE visible
04 Nov - 00:15:51 10° SE 00:16:42 10° SE 00:17:33 10° ESE night (unlit)
04 Nov - 01:53:06 10° SW 01:57:24 42° SSE 02:01:39 10° E night (unlit)
04 Nov - 03:34:16 10° W 03:38:48 82° NNW 03:43:17 10° ENE night (unlit)
04 Nov - 05:16:01 10° WNW 05:20:32 78° N 05:24:58 10° E night (unlit)
04 Nov - 06:57:41 10° WNW 07:01:59 48° SSW 07:06:13 10° SE visible
04 Nov - 08:40:56 10° WSW 08:42:43 12° SW 08:44:31 10° SSW visible
05 Nov - 00:29:27 10° S 00:32:43 19° SE 00:35:57 10° E night (unlit)
05 Nov - 02:09:12 10° WSW 02:13:43 65° SSE 02:18:11 10° ENE night (unlit)
05 Nov - 03:50:47 10° W 03:55:19 73° N 03:59:47 10° E night (unlit)
05 Nov - 05:32:30 10° WNW 05:37:00 86° SSW 05:41:27 10° ESE night (unlit)
05 Nov - 07:14:20 10° W 07:18:13 30° SW 07:22:03 10° SSE night (unlit)
06 Nov - 00:44:47 10° SSW 00:48:51 32° SE 00:52:53 10° E night (unlit)
06 Nov - 02:25:34 10° WSW 02:30:08 88° SSE 02:34:39 10° ENE night (unlit)
06 Nov - 04:07:18 10° W 04:11:50 73° N 04:16:18 10° E night (unlit)
06 Nov - 05:48:59 10° WNW 05:53:25 62° SSW 05:57:46 10° SE night (unlit)
06 Nov - 07:31:22 10° W 07:34:20 18° SW 07:37:16 10° S night (unlit)
06 Nov - 23:21:56 10° SSE 23:24:18 14° SE 23:26:38 10° ESE visible
